Home   Weather   Tilburg   Past weeks

Flag for Netherlands Past Weather in Tilburg, Netherlands — Yesterday and Last 2 Weeks

54 °F


Feels Like: 52 °F
Forecast: 47 / 60 °F
Wind: 6 mph from West

Location: Gilze-Rijen

Current Time: Oct 26, 2016 at 3:30:50 PM

Latest Report: Oct 26, 2016 at 2:55 PM

Visibility: 3 mi

Pressure: 30.39 "Hg

Humidity: 77%

Dew Point: 46 °F

Location of TilburgLocation

Past Weather in Tilburg — Graph


Tilburg Temperature Yesterday

Maximum temperature yesterday: 50 °F (at 12:25 PM)
Minimum temperature yesterday: 46 °F (at 12:25 AM)
Average temperature yesterday: 48 °F

High & Low Weather Summary for the Past Weeks

High68 °F (Oct 16, 2:25 PM)100% (Oct 14, 11:55 PM)30.39 "Hg (Oct 14, 11:55 PM)
Low28 °F (Oct 23, 5:25 AM)55% (Oct 11, 2:25 PM)29.65 "Hg (Oct 14, 11:55 PM)
Average48 °F88%30.00 "Hg
* Reported Oct 11 2:25 PM — Oct 26 2:25 PM, Tilburg, Weather by CustomWeather, © 2016

Note: Actual official high and low records may vary slightly from our data, if they occured in-between our weather recording intervals... More about our weather records


Tilburg Weather History for the Previous 24 Hours

Scroll right to see more
Time TempWeatherWind HumidityBarometerVisibility
2:25 PM
Wed, Oct 26
54 °FMostly cloudy.6 mph77%30.39 "Hg3 mi
1:55 PM54 °FOvercast.5 mph77%30.39 "Hg3 mi
1:25 PM54 °FBroken clouds.6 mph77%30.39 "Hg3 mi
12:55 PM54 °FOvercast.5 mph72%30.39 "Hg3 mi
12:25 PM52 °FOvercast.8 mph77%30.39 "Hg4 mi
11:55 AM52 °FOvercast.6 mph77%30.39 "Hg4 mi
11:25 AM50 °FFog.5 mph82%30.39 "Hg4 mi
10:55 AM50 °FFog.5 mph82%30.36 "Hg3 mi
10:25 AM48 °FFog.3 mph87%30.36 "Hg2 mi
9:58 AM45 °FFog.3 mph100%30.36 "Hg3 mi
9:55 AM45 °FFog.3 mph100%30.36 "Hg2 mi
9:25 AM39 °FFog.3 mph100%30.36 "Hg0 mi
8:56 AM39 °FFog.1 mph100%30.36 "Hg1 mi
8:25 AM39 °FFog.2 mph100%30.36 "Hg0 mi
7:55 AM43 °FFog.1 mph100%30.36 "Hg0 mi
7:25 AM45 °FFog.1 mph100%30.36 "Hg1 mi
6:55 AM46 °FFog.No wind93%30.36 "Hg2 mi
6:25 AM46 °FFog.2 mph93%30.36 "Hg2 mi
5:55 AM45 °FFog.5 mph100%30.33 "Hg2 mi
5:25 AM46 °FFog.2 mph93%30.33 "Hg2 mi
4:55 AM46 °FFog.2 mph93%30.33 "Hg2 mi
4:25 AM46 °FFog.2 mph93%30.33 "Hg2 mi
3:55 AM48 °FFog.2 mph94%30.33 "Hg2 mi
3:25 AM46 °FFog.1 mph100%30.33 "Hg2 mi
3:00 AM46 °FFog.1 mph100%30.33 "Hg3 mi
2:25 AM46 °FFog.2 mph93%30.33 "Hg2 mi
1:55 AM46 °FFog.3 mph93%30.33 "Hg3 mi
1:25 AM48 °FFog.3 mph94%30.33 "Hg4 mi
12:55 AM48 °FFog.2 mph94%30.33 "Hg4 mi
12:25 AM48 °FFog.3 mph94%30.33 "Hg4 mi
11:55 PM
Tue, Oct 25
48 °FFog.2 mph87%30.33 "Hg4 mi
11:25 PM48 °FFog.2 mph87%30.33 "Hg3 mi
10:55 PM48 °FFog.1 mph94%30.33 "Hg4 mi
10:25 PM48 °FFog.1 mph94%30.30 "Hg4 mi
10:00 PM48 °FFog.2 mph94%30.30 "Hg4 mi
9:25 PM48 °FFog.1 mph94%30.30 "Hg4 mi
8:55 PM50 °FFog.1 mph88%30.30 "Hg3 mi
8:25 PM48 °FFog.1 mph94%30.30 "Hg4 mi
7:55 PM50 °FOvercast.2 mph82%30.30 "HgN/A
7:25 PM50 °FFog.1 mph88%30.27 "Hg4 mi
6:55 PM50 °FFog.3 mph88%30.27 "Hg3 mi
6:25 PM50 °FFog.3 mph88%30.27 "Hg3 mi
6:01 PM50 °FFog.1 mph88%30.27 "Hg3 mi
5:25 PM50 °FFog.2 mph88%30.27 "Hg3 mi
4:55 PM50 °FFog.2 mph88%30.24 "Hg3 mi
4:25 PM50 °FFog.3 mph88%30.24 "Hg3 mi
3:55 PM50 °FFog.3 mph88%30.24 "Hg3 mi
3:25 PM50 °FFog.3 mph88%30.24 "Hg4 mi
Weather by CustomWeather, © 2016

See weather overviewHow to use our weather pages